Tracking 19827 objects as of 21-Aug-2019
HD Live streaming from Space Station
objects crossing your sky now

COSMOS 520

Track COSMOS 520 now!
COSMOS 520 is classified as:


NORAD ID: 6192
Int'l Code: 1972-072A
Perigee: 8,474.6 km
Apogee: 31,770.5 km
Inclination: 73.2 °
Period: 715.3 minutes
Semi major axis: 26493 km
RCS: 12.5618 m2 (large)
Launch date: September 19, 1972
Source: Commonwealth of Independent States (former USSR) (CIS)
Launch site: PLESETSK MISSILE AND SPACE COMPLEX (PKMTR)
aabbcc
Your satellite tracking list
Your tracking list is empty




NASA's NSSDC Master Catalog

Two Line Element Set (TLE):
1  6192U 72072A   19233.46893823  .00000026  00000-0  00000+0 0  9994
2  6192  73.1829 309.8232 4396529 267.7057  35.0383  2.01322747345001
Source of the keplerian elements: AFSPC